COSMOS 2251 DEB, 33899

Orbit data source: Space-Track

COSMOS 2251 DEB, 33899 is space debris in LEO originally from a launch on Wed, 16 Jun 1993 UTC launched from the Plesetsk Missile And Space Complex (PKMTR). The debris from Iridium 33, an American commercial communications satellite, has been tracked extensively since its accidental collision with the defunct Russian satellite Cosmos 2251 in 2009. This event, occurring at high speed in low Earth orbit (LEO), generated thousands of pieces of space debris, significantly increasing the risk of further collisions. The Iridium 33 debris cloud has impacted space traffic management and orbital debris mitigation strategies, making it a subject of ongoing study in space situational awareness.

Loading next visibility...
Identifier
33899, 1993-036DC
Orbit
LEO
Country
Flag of CISCIS
Related business
Manufacturer
Unknown
Mission
Spacecraft
Bus & Motor
Unknown
Mass
Unknown
Launch date (UTC)
1993-06-16 (33 years ago)
Launch vehicle
Unknown
Launch site
Plesetsk Missile And Space Complex (PKMTR)
Object type
Payload
Rocket body
Debris
Shape & HBR
Unknown shape, 0.1 m
Radar Cross Section
Small (<0.1 m²)

Expand to show TLE details & history
Last TLE update: 9 hours ago

TLE from 9 hours ago
0 COSMOS 2251 DEB
1 33899U 93036DC  26120.17627868  .00003082  00000-0  60158-3 0  9995
2 33899  74.0534 181.0466 0057362 208.8510 182.5212 14.62353690908625
Epoch: 2026-04-30T04:13Z
TLE epoch observation values (Epoch: 2026-04-30T04:13:50.477Z)
Latitude
30.06829°
Longitude
-91.06986°
Altitude
729.547 km
Speed
7.472 km/s
True Right ascension
12h 42m 04s
True Declination
29° 55' 08"
Sunlit
Object was in full shadow at epoch
Visualization orbit readout
Latitude
Unknown
Longitude
Unknown
Altitude
Unknown
Speed
Unknown
Apparent Right ascension
Unknown
Apparent Declination
Unknown
Sunlit
N/A
Visualization observer readout
Local Sidereal Time
20:57:18
Azimuth
Unknown
Elevation
Unknown
Doppler factor
Unknown
Orbital elements
Apogee altitude
723.683 km
Perigee altitude
642.673 km
Semi-major axis
7,061.315 km
Eccentricity
0.00574
Inclination
74.0534°
RAAN
181.0466°
Arg. of periapsis
208.851°
True anomaly
182.49249°
Mean anomaly
182.5212°
Eccentric anomaly
182.50682°
Mean motion
3.65776 °/min
Orbital period
98.42 mins
BSTAR
0.00060158
Loading maneuver chart data...
Computing Atmospheric mass density...

Documentation

Showing up to 5 results
|